CPA9900 KLAX-KLAS

Flight info

Callsign CPA9900
Flight time N/A
Altitude 29000
Route ORCKA5 MISEN RNDRZ4
Aircraft B748/H-SDE3FGHIM1M2RWXY/LB1

Departure

Time 2026-05-04 04:42
Airport Los Angeles International Airport (KLAX)

Arrival

Time N/A
Airport Harry Reid International Airport (KLAS)
Time Latitude Longitude Altitude Speed Heading
2026-05-04 04:29 33.93265 -118.38040 103 ft 0 kts 129°
2026-05-04 04:34 33.93267 -118.38043 103 ft 0 kts 129°
2026-05-04 04:34 33.93266 -118.38041 103 ft 0 kts 129°
2026-05-04 04:35 33.93265 -118.38041 103 ft 1 kts 129°
2026-05-04 04:35 33.93267 -118.38043 103 ft 0 kts 131°
2026-05-04 04:35 33.93264 -118.38039 103 ft 1 kts 131°
2026-05-04 04:35 33.93292 -118.38076 108 ft 10 kts 133°
2026-05-04 04:36 33.93357 -118.38138 101 ft 12 kts 159°
2026-05-04 04:36 33.93448 -118.38142 102 ft 15 kts 187°
2026-05-04 04:36 33.93552 -118.38130 102 ft 7 kts 180°
2026-05-04 04:36 33.93573 -118.38130 102 ft 5 kts 178°
2026-05-04 04:37 33.93620 -118.38170 102 ft 5 kts 90°
2026-05-04 04:37 33.93618 -118.38254 104 ft 13 kts 87°
2026-05-04 04:38 33.93612 -118.38327 101 ft 0 kts 82°
2026-05-04 04:38 33.93614 -118.38315 102 ft 2 kts 78°
2026-05-04 04:38 33.93618 -118.38304 103 ft 0 kts 60°
2026-05-04 04:39 33.93621 -118.38299 103 ft 3 kts 57°
2026-05-04 04:39 33.93625 -118.38294 104 ft 0 kts 47°
2026-05-04 04:40 33.93641 -118.38282 105 ft 5 kts 25°
2026-05-04 04:41 33.93684 -118.38283 105 ft 8 kts 346°
2026-05-04 04:41 33.93727 -118.38339 105 ft 10 kts 285°
2026-05-04 04:41 33.93705 -118.38584 104 ft 75 kts 263°
2026-05-04 04:41 33.93592 -118.39635 159 ft 172 kts 261°
2026-05-04 04:42 33.93400 -118.41290 725 ft 222 kts 263°
2026-05-04 04:42 33.93243 -118.43194 1290 ft 235 kts 263°
2026-05-04 04:42 33.92991 -118.45178 1858 ft 243 kts 255°
2026-05-04 04:42 33.92169 -118.46962 2421 ft 247 kts 235°
2026-05-04 04:43 33.91117 -118.48631 2795 ft 249 kts 233°
2026-05-04 04:43 33.90006 -118.50224 3308 ft 251 kts 231°
2026-05-04 04:43 33.88687 -118.51607 3814 ft 258 kts 207°
2026-05-04 04:43 33.86934 -118.52072 4323 ft 262 kts 182°
2026-05-04 04:44 33.85106 -118.52001 4864 ft 264 kts 178°
2026-05-04 04:44 33.83262 -118.51897 5368 ft 266 kts 180°
2026-05-04 04:44 33.81409 -118.51909 5871 ft 267 kts 184°
2026-05-04 04:44 33.79552 -118.51967 6387 ft 267 kts 183°
2026-05-04 04:45 33.77690 -118.52001 6865 ft 267 kts 182°
2026-05-04 04:45 33.75829 -118.52013 7355 ft 267 kts 182°
2026-05-04 04:45 33.73999 -118.52029 7815 ft 266 kts 183°
2026-05-04 04:47 33.66995 -118.42850 10750 ft 312 kts 112°
2026-05-04 04:47 33.66244 -118.40320 11254 ft 332 kts 113°
2026-05-04 04:47 33.65437 -118.37630 11762 ft 353 kts 113°
2026-05-04 04:47 33.64635 -118.34762 12299 ft 371 kts 106°
2026-05-04 04:48 33.64365 -118.31648 12838 ft 380 kts 94°
2026-05-04 04:49 33.65530 -118.18315 14891 ft 445 kts 66°
2026-05-04 04:49 33.66529 -118.16131 15224 ft 458 kts 56°
2026-05-04 04:49 33.69410 -118.12280 15930 ft 479 kts 37°
2026-05-04 04:49 33.72174 -118.09953 16450 ft 492 kts 28°
2026-05-04 04:50 33.75184 -118.07844 16954 ft 505 kts 26°
2026-05-04 04:50 33.78264 -118.05710 17468 ft 516 kts 27°
2026-05-04 04:50 33.81262 -118.03266 18004 ft 526 kts 33°
2026-05-04 04:50 33.84160 -118.00519 18532 ft 534 kts 36°
2026-05-04 04:51 33.87030 -117.97645 19016 ft 538 kts 36°
2026-05-04 04:51 33.89994 -117.94903 19482 ft 537 kts 32°
2026-05-04 04:51 33.93066 -117.92297 19956 ft 542 kts 32°
2026-05-04 04:51 33.96105 -117.89587 20437 ft 547 kts 34°
2026-05-04 04:52 33.99103 -117.86734 20887 ft 550 kts 35°
2026-05-04 04:52 34.01104 -117.84844 21205 ft 553 kts 34°
2026-05-04 04:52 34.05243 -117.81108 21877 ft 558 kts 33°
2026-05-04 04:52 34.08324 -117.78215 22389 ft 566 kts 39°
2026-05-04 04:53 34.11037 -117.74734 22917 ft 574 kts 48°
2026-05-04 04:53 34.13559 -117.70965 23515 ft 579 kts 50°
2026-05-04 04:53 34.16069 -117.67134 23981 ft 583 kts 49°
2026-05-04 04:53 34.18636 -117.63319 24441 ft 586 kts 48°
2026-05-04 04:54 34.21238 -117.59526 24885 ft 585 kts 48°
2026-05-04 04:54 34.23812 -117.55711 25323 ft 587 kts 49°
2026-05-04 04:54 34.26375 -117.51846 25782 ft 592 kts 49°
2026-05-04 04:54 34.28971 -117.47956 26246 ft 596 kts 48°
2026-05-04 04:55 34.31596 -117.44051 26673 ft 599 kts 48°
2026-05-04 04:55 34.34226 -117.40143 27154 ft 596 kts 48°
2026-05-04 04:55 34.36806 -117.36277 27647 ft 599 kts 48°
2026-05-04 04:55 34.39427 -117.32337 28143 ft 603 kts 48°
2026-05-04 04:56 34.42066 -117.28380 28630 ft 606 kts 48°
2026-05-04 04:56 34.44732 -117.24390 28917 ft 614 kts 47°
2026-05-04 04:56 34.47444 -117.20320 28979 ft 626 kts 48°
2026-05-04 04:56 34.50174 -117.16201 28897 ft 626 kts 48°
2026-05-04 04:57 34.55663 -117.08038 28864 ft 623 kts 47°
2026-05-04 04:57 34.61179 -116.99962 28860 ft 620 kts 48°
2026-05-04 04:58 34.66707 -116.91914 28880 ft 620 kts 47°
2026-05-04 04:58 34.71297 -116.85215 28890 ft 621 kts 48°
2026-05-04 04:59 34.76808 -116.77110 28913 ft 621 kts 47°
2026-05-04 04:59 34.82328 -116.69025 28909 ft 622 kts 47°